[[{"header":{"parameterUnit":"m.s-1","parameterCategory":1,"la1":30.2991,"la2":30.254,"lo1":-89.0895,"lo2":-89.0444,"dy":0.0017,"dx":0.0017,"nx":28,"ny":28,"refTime":"2026-03-05T09:00:00:Z","depth":0,"parameterNumber":2,"parameterNumberName":"U-component_of_WINDS"},"data":[0,0,0,0,0,0,0,0,0,0,0,0,0,0,0,0,0,0,0,0,0,0,0,0,0,0,0,0,0,0,0,0,0,0,0,0,0,0,0,0,0,0,0,0,0,0,0,0,0,0,0,0,0,0,0,0,0,0,-3.7842,-3.7842,0,-3.7911,-3.7912,-3.7913,-3.787,-3.7868,-3.7866,-3.7864,-3.7937,-3.794,-3.7944,0,0,0,0,0,0,0,0,0,0,0,0,0,-3.7675,-3.7678,-3.7841,-3.7842,-3.7843,-3.7911,-3.7912,-3.7913,-3.7871,-3.7868,-3.7866,-3.7864,-3.7935,-3.794,-3.7945,0,0,0,0,0,0,0,0,0,0,0,0,0,-3.7746,-3.7679,-3.7841,-3.783,-3.783,-3.7911,-3.7912,-3.7913,-3.7871,-3.7868,-3.7865,-3.7862,-3.7934,-3.7939,-3.7945,-3.8041,0,0,-3.7963,-3.7965,0,0,0,0,0,0,0,0,-3.7742,-3.7752,-3.7831,-3.7831,-3.7831,-3.7879,-3.788,-3.7956,-3.7872,-3.7856,-3.7864,-3.7861,-3.792,-3.7927,-3.7946,-3.8044,-3.8048,-3.7963,-3.7967,-3.7969,-3.7971,0,0,0,0,0,0,0,-3.7737,-3.7749,-3.7869,-3.7832,-3.7832,-3.7823,-3.783,-3.7894,-3.7904,-3.7857,-3.7854,-3.7863,-3.7919,-3.7941,-3.7948,-3.8049,-3.7963,-3.7968,-3.7972,-3.7974,-3.8232,-3.8235,0,0,0,0,0,0,-3.7733,-3.7745,-3.7867,-3.7871,-3.7778,-3.7828,-3.7836,-3.7867,-3.7903,-3.7906,-3.7865,-3.786,-3.7933,-3.7941,-3.795,-3.8066,-3.7969,-3.7974,-3.7978,-3.8228,-3.8232,-3.8236,0,0,0,0,0,0,-3.773,-3.7744,-3.7864,-3.7808,-3.7822,-3.7835,-3.7869,-3.787,-3.7891,-3.791,-3.7911,-3.7885,-3.7931,-3.7942,-3.8019,-3.8067,-3.7977,-3.7982,-3.8224,-3.8229,-3.8234,-3.8297,0,0,0,0,0,0,-3.7725,-3.7743,-3.7779,-3.7809,-3.7825,-3.7931,-3.7872,-3.7873,-3.7901,-3.7895,-3.7929,-3.7931,-3.7929,-3.8011,-3.8025,-3.8074,-3.7987,-3.822,-3.8227,-3.8233,-3.829,-3.8303,-3.8314,0,0,0,0,0,-3.7719,-3.7793,-3.7781,-3.7796,-3.787,-3.7934,-3.7943,-3.7939,-3.7905,-3.7941,-3.7954,-3.793,-3.8061,-3.8019,-3.8035,-3.8086,-3.8217,-3.8225,-3.8232,-3.8285,-3.8301,-3.8314,0,0,0,0,0,0,-3.7768,-3.7797,-3.7783,-3.7869,-3.7899,-3.7926,-3.7972,-3.7956,-3.7996,-3.7989,-3.7983,-3.7991,-3.8072,-3.8087,-3.804,-3.8182,-3.8133,-3.8145,-3.8168,-3.8184,-3.8195,-3.8189,-3.7991,0,0,0,0,0,-3.7789,-3.7837,-3.7861,-3.7934,-3.795,-3.7959,-3.7986,-3.7981,-3.8012,-3.8025,-3.8043,-3.8074,-3.8123,-3.8154,-3.82,-3.8294,-3.8301,-3.8337,-3.8349,-3.8359,-3.8368,-3.842,-3.8436,-3.8261,-3.8261,-3.8261,0,0,-3.7831,-3.7854,-3.7884,-3.7944,-3.7967,-3.8019,-3.797,-3.8026,-3.8064,-3.8033,-3.8107,-3.8122,-3.8157,-3.8244,-3.8283,-3.8259,-3.8418,-3.8369,-3.8376,-3.838,-3.843,-3.8446,-3.8461,-3.8267,-3.8266,-3.8265,0,0,-3.7936,-3.7958,-3.8021,-3.8046,-3.8082,-3.8088,-3.8104,-3.8135,-3.8143,-3.8218,-3.8196,-3.8243,-3.8326,-3.8352,-3.8377,-3.8497,-3.8477,-3.8512,-3.8574,-3.8625,-3.8639,-3.8651,-3.8694,-3.8709,-3.8521,-3.8522,-3.8522,0,-3.7984,-3.806,-3.8057,-3.8115,-3.8143,-3.8119,-3.8185,-3.8209,-3.8258,-3.8278,-3.8251,-3.8357,-3.8379,-3.8472,-3.8501,-3.8522,-3.854,-3.8506,-3.8637,-3.8649,-3.866,-3.8701,-3.8717,-3.8525,-3.8525,-3.8525,-3.8524,0,-3.8119,-3.8173,-3.8221,-3.8269,-3.8303,-3.8364,-3.8371,-3.8406,-3.8399,-3.8409,-3.8486,-3.8513,-3.8564,-3.8586,-3.8579,-3.8679,-3.8663,-3.8637,-3.8588,-3.8681,-3.8719,-3.8735,-3.8531,-3.853,-3.8529,-3.8528,0,0,-3.8251,-3.83,-3.8317,-3.834,-3.838,-3.8422,-3.8485,-3.8535,-3.8565,-3.8601,-3.8654,-3.8727,-3.8704,-3.8732,-3.8729,-3.8774,-3.8868,-3.8742,-3.8743,-3.8764,-3.898,-3.8998,-3.9016,-3.8856,-3.8859,-3.8862,-3.8977,0,-3.8357,-3.8465,-3.8465,-3.8565,-3.8616,-3.8596,-3.8651,-3.8682,-3.8694,-3.874,-3.8753,-3.8805,-3.877,-3.8787,-3.8832,-3.8847,-3.8911,-3.8839,-3.8905,-3.8908,-3.8895,-3.9036,-3.9055,-3.9162,-3.8992,-3.8994,-3.8996,0,-3.8494,-3.8536,-3.8641,-3.8676,-3.8697,-3.8746,-3.8793,-3.8837,-3.8874,-3.8879,-3.8913,-3.8904,-3.8969,-3.8921,-3.9012,-3.8963,-3.8991,-3.9003,-3.9007,-3.9011,-3.8956,-3.9043,-3.9196,-3.9211,-3.902,-3.9018,-3.9016,0,-3.8579,-3.8662,-3.8736,-3.8756,-3.8799,-3.8834,-3.8854,-3.8887,-3.8919,-3.8961,-3.8982,-3.9032,-3.9059,-3.9099,-3.9104,-3.9068,-3.9196,-3.9147,-3.9203,-3.9203,-3.9228,-3.9225,-3.9386,-3.9249,-3.9249,-3.9249,-3.9248,0,-3.8696,-3.8761,-3.8775,-3.882,-3.8893,-3.8895,-3.8967,-3.8984,-3.9015,-3.9065,-3.9052,-3.9099,-3.9104,-3.9153,-3.9159,-3.9234,-3.9246,-3.9253,-3.9253,-3.9253,-3.9252,-3.9269,-3.9261,-3.9253,-3.9252,-3.9251,-3.925,0,-3.8802,-3.8814,-3.8893,-3.8929,-3.8939,-3.8992,-3.9022,-3.9067,-3.9079,-3.9142,-3.9157,-3.9176,-3.9234,-3.9244,-3.9312,-3.9316,-3.9405,-3.9398,-3.9392,-3.9391,-3.9445,-3.9439,-3.962,-3.9644,-3.9494,-3.9495,-3.9496,0,-3.8875,-3.8924,-3.8966,-3.8998,-3.902,-3.9072,-3.9105,-3.911,-3.9144,-3.9192,-3.9231,-3.9287,-3.9332,-3.9425,-3.9446,-3.9498,-3.9492,-3.9552,-3.95,-3.9499,-3.9492,-3.9488,-3.9494,-3.9561,-3.9563,-3.9564,-3.9565,0,-3.9002,-3.9007,-3.9054,-3.9104,-3.9144,-3.9183,-3.9221,-3.9249,-3.9259,-3.9299,-3.9358,-3.9393,-3.9464,-3.952,-3.9573,-3.9595,-3.9582,-3.9583,-3.9598,-3.9597,-3.9591,-3.9594,-3.9418,-3.9577,-3.9576,-3.9575,-3.9575,-3.9574,-3.9093,-3.9137,-3.9174,-3.9228,-3.9257,-3.9294,-3.9338,-3.9357,-3.9406,-3.9463,-3.9464,-3.9529,-3.9567,-3.9637,-3.9663,-3.9715,-3.9695,-3.9718,-3.9723,-3.9728,-3.9733,-3.9585,-3.9725,-3.9724,-3.9724,-3.9724,-3.9723,0,-3.9219,-3.9243,-3.9293,-3.9347,-3.939,-3.9376,-3.9419,-3.9455,-3.9512,-3.955,-3.9595,-3.9664,-3.972,-3.9747,-3.9802,-3.9839,-3.9834,-3.9853,-3.9849,-3.9854,-3.9747,-3.9728,-3.9855,-3.9855,-3.9855,-3.9855,-3.9855,-3.9855,-3.9289,-3.9363,-3.9373,-3.9463,-3.9486,-3.9549,-3.9575,-3.9609,-3.9639,-3.9717,-3.9763,-3.9781,-3.9815,-3.9873,-3.9925,-3.9931,-3.9952,-3.9973,-3.9977,-3.9875,-3.9862,-3.9849,-3.9831,-3.9978,-3.9978,-4.008,-4.0081,-4.0081]},{"header":{"parameterUnit":"m.s-1","parameterCategory":1,"la1":30.2991,"la2":30.254,"lo1":-89.0895,"lo2":-89.0444,"dy":0.0017,"dx":0.0017,"nx":28,"ny":28,"refTime":"2026-03-05T09:00:00:Z","depth":0,"parameterNumber":3,"parameterNumberName":"V-component_of_WINDS"},"data":[0,0,0,0,0,0,0,0,0,0,0,0,0,0,0,0,0,0,0,0,0,0,0,0,0,0,0,0,0,0,0,0,0,0,0,0,0,0,0,0,0,0,0,0,0,0,0,0,0,0,0,0,0,0,0,0,0,0,1.6111,1.6112,0,1.6194,1.6195,1.6196,1.6264,1.6265,1.6266,1.6267,1.6348,1.6349,1.635,0,0,0,0,0,0,0,0,0,0,0,0,0,1.601,1.6012,1.6111,1.6112,1.6113,1.6194,1.6195,1.6196,1.6264,1.6265,1.6266,1.6267,1.6347,1.6349,1.6351,0,0,0,0,0,0,0,0,0,0,0,0,0,1.607,1.6012,1.611,1.6157,1.6162,1.6193,1.6195,1.6196,1.6264,1.6265,1.6266,1.6267,1.6347,1.6349,1.6351,1.6342,0,0,1.6358,1.6359,0,0,0,0,0,0,0,0,1.6066,1.6073,1.6149,1.6154,1.6159,1.622,1.6189,1.6245,1.6264,1.6225,1.6267,1.6268,1.6304,1.631,1.6323,1.6346,1.635,1.6358,1.6359,1.636,1.6361,0,0,0,0,0,0,0,1.6062,1.607,1.6143,1.615,1.6156,1.6173,1.6183,1.62,1.6257,1.6228,1.6234,1.6243,1.6307,1.632,1.6325,1.6351,1.6358,1.636,1.6361,1.6362,1.6375,1.6374,0,0,0,0,0,0,1.6051,1.6066,1.6141,1.6146,1.6115,1.6174,1.6185,1.6199,1.6257,1.6267,1.6242,1.6246,1.6316,1.6322,1.6328,1.6325,1.636,1.6362,1.6363,1.6376,1.6375,1.6374,0,0,0,0,0,0,1.6049,1.6057,1.6137,1.6108,1.6119,1.6175,1.619,1.62,1.6214,1.6267,1.6277,1.6245,1.6317,1.6325,1.6339,1.6328,1.6363,1.6365,1.6377,1.6375,1.6374,1.6315,0,0,0,0,0,0,1.6045,1.6056,1.6053,1.6107,1.612,1.6147,1.619,1.6201,1.6218,1.6224,1.6273,1.6282,1.6319,1.6336,1.6342,1.6332,1.6367,1.6378,1.6376,1.6375,1.6318,1.6312,1.6306,0,0,0,0,0,1.6042,1.6031,1.6052,1.6061,1.6118,1.6146,1.6154,1.6197,1.6217,1.6215,1.625,1.6281,1.6328,1.6337,1.6344,1.6334,1.6379,1.6377,1.6375,1.6321,1.6313,1.6306,0,0,0,0,0,0,1.5972,1.6039,1.6063,1.607,1.6103,1.6158,1.6156,1.6187,1.6213,1.6217,1.6269,1.6279,1.6289,1.6313,1.6321,1.6331,1.6358,1.6357,1.6315,1.6308,1.6302,1.6296,1.6369,0,0,0,0,0,1.5958,1.5976,1.6033,1.6034,1.6049,1.61,1.6114,1.6145,1.618,1.6193,1.6229,1.626,1.6283,1.6297,1.632,1.6322,1.6335,1.632,1.6314,1.6308,1.6307,1.6313,1.6307,1.6366,1.6366,1.6366,0,0,1.5928,1.5967,1.5975,1.6021,1.605,1.6067,1.6111,1.6126,1.614,1.6195,1.6212,1.6239,1.6278,1.6287,1.6293,1.6308,1.6294,1.6306,1.6301,1.6303,1.631,1.6304,1.6299,1.6365,1.6365,1.6365,0,0,1.5883,1.5914,1.592,1.5948,1.5992,1.6027,1.6028,1.608,1.6101,1.6119,1.6161,1.6178,1.6215,1.6242,1.6261,1.623,1.6261,1.6236,1.6205,1.621,1.6205,1.6201,1.6192,1.6188,1.6235,1.6235,1.6235,0,1.584,1.5869,1.5918,1.5933,1.5953,1.6006,1.6012,1.6037,1.6085,1.6098,1.6114,1.6165,1.6194,1.6212,1.6205,1.6218,1.6222,1.6231,1.6202,1.6199,1.6196,1.6188,1.6184,1.6232,1.6232,1.6232,1.6233,0,1.5816,1.5835,1.5835,1.5883,1.5903,1.5913,1.5963,1.5977,1.6008,1.604,1.6059,1.6098,1.6131,1.6138,1.6166,1.616,1.6168,1.6192,1.6221,1.6186,1.618,1.6177,1.6227,1.6228,1.6229,1.623,0,0,1.5727,1.5805,1.5804,1.5828,1.5882,1.5898,1.5911,1.5946,1.5958,1.5991,1.6004,1.6036,1.606,1.6081,1.6113,1.6118,1.6094,1.6142,1.6144,1.6133,1.6092,1.6074,1.607,1.6115,1.6114,1.6114,1.609,0,1.5692,1.5721,1.5767,1.578,1.58,1.5852,1.5865,1.5899,1.5931,1.5952,1.5987,1.601,1.6039,1.6052,1.6059,1.6095,1.6087,1.6098,1.6128,1.6129,1.6117,1.6066,1.6046,1.6021,1.6087,1.6087,1.6086,0,1.5654,1.5687,1.5703,1.5759,1.5769,1.5779,1.5816,1.5836,1.5877,1.59,1.5925,1.5961,1.5979,1.6005,1.6031,1.6038,1.6053,1.6073,1.6073,1.6078,1.6105,1.607,1.6014,1.6011,1.6082,1.6083,1.6083,0,1.559,1.5638,1.5655,1.5673,1.5738,1.5744,1.5771,1.5813,1.5833,1.5865,1.5878,1.5911,1.593,1.5955,1.5999,1.6014,1.6021,1.605,1.6041,1.604,1.604,1.604,1.5986,1.6048,1.6048,1.6048,1.6049,0,1.5547,1.5555,1.5627,1.5637,1.5649,1.5702,1.5712,1.5744,1.5781,1.5799,1.5845,1.5861,1.5918,1.5941,1.5975,1.5993,1.6,1.602,1.6029,1.6016,1.6014,1.6027,1.603,1.6048,1.6048,1.6048,1.6048,0,1.5477,1.5526,1.5548,1.5609,1.5624,1.563,1.5682,1.5694,1.573,1.5752,1.576,1.5816,1.5845,1.5893,1.5934,1.5958,1.597,1.5984,1.5956,1.5962,1.5951,1.5952,1.5905,1.5902,1.5965,1.5964,1.5963,0,1.5446,1.5454,1.5517,1.5533,1.556,1.5584,1.5605,1.5658,1.5678,1.5727,1.5734,1.5767,1.5797,1.5841,1.5885,1.5918,1.5935,1.5916,1.594,1.5927,1.5936,1.5935,1.5937,1.591,1.5909,1.5909,1.5908,0,1.5387,1.5412,1.5441,1.5479,1.5503,1.5535,1.5569,1.558,1.564,1.566,1.5692,1.5715,1.576,1.5793,1.5833,1.5861,1.5895,1.5901,1.5901,1.5888,1.5872,1.5882,1.5942,1.5901,1.5902,1.5902,1.5903,1.5903,1.5337,1.5348,1.5395,1.5426,1.5459,1.549,1.5506,1.5545,1.5573,1.5615,1.5644,1.5675,1.5718,1.5776,1.5802,1.5826,1.5841,1.5841,1.5841,1.584,1.5836,1.5868,1.5834,1.5834,1.5834,1.5834,1.5835,0,1.5282,1.5315,1.5344,1.5392,1.5417,1.5449,1.549,1.5509,1.5535,1.5573,1.5603,1.564,1.5673,1.5721,1.5758,1.5768,1.5785,1.5776,1.5776,1.5783,1.582,1.5817,1.5762,1.5762,1.5762,1.5762,1.5762,1.5762,1.5256,1.5277,1.5308,1.5346,1.538,1.5411,1.5432,1.5462,1.5493,1.5534,1.5562,1.5594,1.5637,1.5677,1.5709,1.5723,1.5734,1.5721,1.5739,1.5773,1.5779,1.5786,1.5783,1.5723,1.5723,1.57,1.57,1.57]}]]